[[{"header":{"parameterUnit":"m.s-1","parameterCategory":1,"la1":30.2991,"la2":30.254,"lo1":-89.0895,"lo2":-89.0444,"dy":0.0017,"dx":0.0017,"nx":28,"ny":28,"refTime":"2026-02-07T03:00:00:Z","depth":0,"parameterNumber":2,"parameterNumberName":"U-component_of_WINDS"},"data":[0,0,0,0,0,0,0,0,0,0,0,0,0,0,0,0,0,0,0,0,0,0,0,0,0,0,0,0,0,0,0,0,0,0,0,0,0,0,0,0,0,0,0,0,0,0,0,0,0,0,0,0,0,0,0,0,0,0,0.0278,0.0279,0,0.0331,0.0331,0.0332,0.0317,0.0316,0.0315,0.0314,0.0369,0.0372,0.0374,0,0,0,0,0,0,0,0,0,0,0,0,0,0.0167,0.0169,0.0278,0.0279,0.0279,0.033,0.0331,0.0332,0.0317,0.0316,0.0314,0.0313,0.0368,0.0371,0.0374,0,0,0,0,0,0,0,0,0,0,0,0,0,0.0217,0.0169,0.0278,0.0278,0.0279,0.033,0.0331,0.0332,0.0317,0.0316,0.0314,0.0313,0.0367,0.0371,0.0375,0.043,0,0,0.0386,0.0388,0,0,0,0,0,0,0,0,0.0214,0.0221,0.0277,0.0278,0.0279,0.0315,0.0312,0.0365,0.0318,0.0303,0.0314,0.0312,0.0353,0.0358,0.0371,0.0433,0.0435,0.0386,0.0389,0.039,0.0391,0,0,0,0,0,0,0,0.021,0.0219,0.0299,0.0278,0.0279,0.0276,0.0281,0.0322,0.0336,0.0304,0.0303,0.0309,0.0353,0.0367,0.0372,0.0436,0.0386,0.039,0.0392,0.0393,0.0546,0.0548,0,0,0,0,0,0,0.0206,0.0216,0.0297,0.03,0.0242,0.0279,0.0285,0.0305,0.0336,0.0339,0.0311,0.0308,0.0362,0.0368,0.0374,0.0441,0.039,0.0394,0.0396,0.0544,0.0546,0.0548,0,0,0,0,0,0,0.0204,0.0214,0.0295,0.0258,0.0268,0.0283,0.0306,0.0307,0.0322,0.0341,0.0343,0.0323,0.0361,0.0369,0.0416,0.0443,0.0395,0.0399,0.0542,0.0545,0.0547,0.0576,0,0,0,0,0,0,0.0201,0.0213,0.0234,0.0258,0.027,0.0336,0.0307,0.0309,0.0328,0.0326,0.0353,0.0356,0.036,0.0411,0.042,0.0447,0.0402,0.054,0.0543,0.0547,0.0573,0.0579,0.0585,0,0,0,0,0,0.0197,0.024,0.0235,0.0245,0.0296,0.0337,0.0344,0.0348,0.033,0.0352,0.0364,0.0355,0.0438,0.0416,0.0426,0.0455,0.0538,0.0542,0.0546,0.057,0.0578,0.0585,0,0,0,0,0,0,0.0218,0.0243,0.0238,0.029,0.0311,0.0335,0.0362,0.0356,0.0384,0.038,0.0384,0.039,0.0439,0.0452,0.0426,0.051,0.0486,0.0492,0.05,0.0508,0.0514,0.051,0.0405,0,0,0,0,0,0.0229,0.0259,0.028,0.0324,0.0335,0.0346,0.0365,0.0366,0.0388,0.0398,0.0413,0.0437,0.0468,0.0489,0.0519,0.0574,0.058,0.0599,0.0605,0.061,0.0616,0.0647,0.0655,0.0562,0.0562,0.0562,0,0,0.0251,0.0268,0.0288,0.0328,0.0345,0.0378,0.0354,0.039,0.0414,0.0403,0.0449,0.0461,0.0487,0.0539,0.0563,0.0551,0.0643,0.0615,0.0619,0.0622,0.0652,0.0661,0.0668,0.0565,0.0564,0.0564,0,0,0.0309,0.0325,0.0363,0.0381,0.0407,0.0414,0.0423,0.0448,0.0456,0.0501,0.0494,0.0523,0.0577,0.0596,0.0613,0.0679,0.0672,0.0688,0.072,0.075,0.0758,0.0764,0.0788,0.0796,0.0694,0.0694,0.0694,0,0.0333,0.0381,0.0384,0.042,0.0438,0.043,0.0469,0.0486,0.0521,0.0534,0.0521,0.0589,0.0605,0.0662,0.0678,0.0692,0.0703,0.0685,0.0756,0.0763,0.0769,0.0792,0.0801,0.0696,0.0695,0.0695,0.0695,0,0.0411,0.0444,0.0473,0.0506,0.0528,0.0565,0.0574,0.0596,0.0595,0.0604,0.0651,0.0671,0.0705,0.0719,0.0718,0.0775,0.0767,0.0755,0.0731,0.078,0.0801,0.081,0.0698,0.0698,0.0697,0.0697,0,0,0.0483,0.0517,0.0528,0.0543,0.0571,0.0597,0.0635,0.0668,0.0687,0.0711,0.0743,0.0789,0.0778,0.0797,0.0799,0.0825,0.0876,0.081,0.0811,0.0822,0.0941,0.095,0.096,0.0872,0.0874,0.0875,0.0939,0,0.0543,0.0609,0.0612,0.0672,0.0703,0.0696,0.0729,0.075,0.076,0.0789,0.0799,0.0832,0.0815,0.0826,0.0852,0.0865,0.09,0.086,0.0902,0.0904,0.0896,0.0971,0.0981,0.104,0.0947,0.0949,0.095,0,0.0622,0.0648,0.0711,0.0735,0.0749,0.0778,0.0809,0.0836,0.086,0.0866,0.0887,0.0885,0.0925,0.0899,0.0953,0.0926,0.0943,0.0952,0.0955,0.0959,0.093,0.0978,0.1059,0.1068,0.0963,0.0962,0.0961,0,0.0669,0.072,0.0764,0.0778,0.0807,0.0828,0.0841,0.0864,0.0883,0.0911,0.0924,0.0955,0.0972,0.0997,0.1004,0.0985,0.1059,0.1033,0.1064,0.1064,0.108,0.1079,0.1166,0.1091,0.1091,0.1091,0.1091,0,0.0735,0.0774,0.0786,0.0813,0.0857,0.0861,0.0904,0.0916,0.0936,0.0966,0.0962,0.099,0.0998,0.1028,0.1033,0.1078,0.1086,0.1091,0.1092,0.1092,0.1091,0.1103,0.1099,0.1094,0.1093,0.1093,0.1092,0,0.0795,0.0804,0.0852,0.0876,0.0883,0.0914,0.0934,0.0961,0.097,0.1008,0.1018,0.1032,0.1067,0.1077,0.1119,0.1123,0.1175,0.1172,0.1167,0.1167,0.1197,0.1194,0.1295,0.1308,0.1225,0.1226,0.1227,0,0.0837,0.0866,0.0894,0.0913,0.0927,0.0959,0.0979,0.0985,0.1006,0.1036,0.1059,0.1093,0.1121,0.1178,0.1192,0.1225,0.1223,0.1256,0.1227,0.1226,0.1223,0.1221,0.1225,0.1261,0.1262,0.1263,0.1263,0,0.091,0.0914,0.0942,0.0973,0.0997,0.1022,0.1046,0.1062,0.1071,0.1095,0.1131,0.1152,0.1195,0.123,0.1262,0.1277,0.1272,0.1272,0.1281,0.1281,0.1276,0.1279,0.1181,0.127,0.1269,0.1269,0.1268,0.1268,0.0963,0.0989,0.1012,0.1044,0.1063,0.1085,0.1111,0.1124,0.1153,0.1188,0.119,0.1229,0.1253,0.1296,0.1313,0.1343,0.1333,0.1346,0.135,0.1353,0.1355,0.1271,0.1349,0.1349,0.1349,0.1349,0.1349,0,0.1036,0.1051,0.1081,0.1114,0.1139,0.1132,0.1158,0.118,0.1214,0.1237,0.1265,0.1306,0.1339,0.1357,0.139,0.1412,0.141,0.142,0.1419,0.1422,0.1362,0.1351,0.1421,0.1421,0.1421,0.1421,0.1421,0.1421,0.1077,0.1121,0.1127,0.1181,0.1195,0.1233,0.1248,0.1269,0.1287,0.1333,0.1361,0.1372,0.1393,0.1428,0.1459,0.1463,0.1475,0.1487,0.149,0.1434,0.1426,0.1419,0.1409,0.1489,0.1489,0.1547,0.1548,0.1548]},{"header":{"parameterUnit":"m.s-1","parameterCategory":1,"la1":30.2991,"la2":30.254,"lo1":-89.0895,"lo2":-89.0444,"dy":0.0017,"dx":0.0017,"nx":28,"ny":28,"refTime":"2026-02-07T03:00:00:Z","depth":0,"parameterNumber":3,"parameterNumberName":"V-component_of_WINDS"},"data":[0,0,0,0,0,0,0,0,0,0,0,0,0,0,0,0,0,0,0,0,0,0,0,0,0,0,0,0,0,0,0,0,0,0,0,0,0,0,0,0,0,0,0,0,0,0,0,0,0,0,0,0,0,0,0,0,0,0,-1.6827,-1.6827,0,-1.6874,-1.6875,-1.6875,-1.699,-1.6992,-1.6995,-1.6997,-1.7042,-1.7041,-1.704,0,0,0,0,0,0,0,0,0,0,0,0,0,-1.6834,-1.6834,-1.6827,-1.6827,-1.6828,-1.6874,-1.6875,-1.6875,-1.6989,-1.6992,-1.6995,-1.6998,-1.7042,-1.7041,-1.7039,0,0,0,0,0,0,0,0,0,0,0,0,0,-1.6851,-1.6833,-1.6826,-1.689,-1.6897,-1.6874,-1.6875,-1.6875,-1.6989,-1.6992,-1.6996,-1.6999,-1.7042,-1.7041,-1.7039,-1.6957,0,0,-1.7034,-1.7034,0,0,0,0,0,0,0,0,-1.685,-1.6851,-1.688,-1.6886,-1.6893,-1.693,-1.6894,-1.6903,-1.6988,-1.6954,-1.6997,-1.7001,-1.7001,-1.7003,-1.7004,-1.6959,-1.6961,-1.7034,-1.7033,-1.7033,-1.7032,0,0,0,0,0,0,0,-1.6849,-1.6849,-1.6845,-1.6881,-1.6888,-1.6917,-1.6923,-1.6896,-1.6956,-1.6957,-1.6965,-1.697,-1.7005,-1.7005,-1.7006,-1.6962,-1.7034,-1.7033,-1.7032,-1.7031,-1.6856,-1.6853,0,0,0,0,0,0,-1.6839,-1.6847,-1.6844,-1.6847,-1.688,-1.6913,-1.6921,-1.6914,-1.6957,-1.6967,-1.6967,-1.6975,-1.7006,-1.7008,-1.7008,-1.6918,-1.7033,-1.7031,-1.703,-1.686,-1.6855,-1.6851,0,0,0,0,0,0,-1.6838,-1.6837,-1.6842,-1.685,-1.6852,-1.691,-1.6901,-1.6913,-1.6914,-1.6964,-1.6976,-1.6955,-1.7009,-1.701,-1.697,-1.6921,-1.703,-1.7029,-1.6864,-1.6858,-1.6853,-1.6734,0,0,0,0,0,0,-1.6838,-1.6836,-1.6805,-1.6848,-1.6851,-1.6803,-1.6898,-1.6912,-1.6911,-1.6922,-1.6957,-1.6966,-1.7012,-1.6972,-1.6968,-1.692,-1.7028,-1.6869,-1.6862,-1.6855,-1.6742,-1.6725,-1.671,0,0,0,0,0,-1.6838,-1.6768,-1.6803,-1.6802,-1.6814,-1.68,-1.6802,-1.6857,-1.6906,-1.6876,-1.691,-1.6965,-1.6926,-1.6967,-1.6964,-1.6914,-1.6872,-1.6864,-1.6856,-1.675,-1.6728,-1.671,0,0,0,0,0,0,-1.6715,-1.6775,-1.6814,-1.6756,-1.6772,-1.6819,-1.6782,-1.6832,-1.6833,-1.6844,-1.6911,-1.6918,-1.6869,-1.6888,-1.6932,-1.6839,-1.6909,-1.6899,-1.6829,-1.6809,-1.6793,-1.679,-1.7026,0,0,0,0,0,-1.6682,-1.6666,-1.6718,-1.6662,-1.6669,-1.6724,-1.672,-1.6762,-1.678,-1.6787,-1.6818,-1.6833,-1.6825,-1.6818,-1.6813,-1.6746,-1.6756,-1.6711,-1.6694,-1.6681,-1.6672,-1.6642,-1.6623,-1.6824,-1.6824,-1.6824,0,0,-1.6612,-1.6643,-1.6628,-1.6639,-1.6656,-1.6638,-1.6729,-1.6705,-1.6693,-1.6783,-1.6749,-1.6771,-1.6793,-1.674,-1.6718,-1.6754,-1.6619,-1.667,-1.6659,-1.6658,-1.6631,-1.6612,-1.6595,-1.6818,-1.6819,-1.682,0,0,-1.6476,-1.6497,-1.6454,-1.6471,-1.6498,-1.6536,-1.6525,-1.6566,-1.6585,-1.6552,-1.662,-1.6607,-1.659,-1.6604,-1.6609,-1.6484,-1.6536,-1.648,-1.6395,-1.6364,-1.6348,-1.6335,-1.6292,-1.6276,-1.6471,-1.6471,-1.647,0,-1.6386,-1.6363,-1.6425,-1.6399,-1.6403,-1.6487,-1.6445,-1.6457,-1.648,-1.648,-1.6521,-1.6505,-1.6526,-1.6479,-1.6449,-1.6449,-1.6441,-1.6476,-1.6346,-1.6332,-1.6321,-1.6281,-1.6265,-1.6464,-1.6465,-1.6465,-1.6466,0,-1.6252,-1.6235,-1.6197,-1.622,-1.6219,-1.6185,-1.6243,-1.6235,-1.6278,-1.6311,-1.6278,-1.6306,-1.631,-1.6302,-1.6342,-1.6262,-1.6284,-1.6333,-1.6405,-1.6294,-1.6258,-1.6243,-1.6454,-1.6457,-1.6459,-1.646,0,0,-1.6037,-1.6099,-1.6084,-1.6098,-1.6135,-1.6123,-1.6093,-1.61,-1.6092,-1.6106,-1.6084,-1.607,-1.6118,-1.6124,-1.6167,-1.6139,-1.6042,-1.6194,-1.6195,-1.6166,-1.5959,-1.5922,-1.5903,-1.6077,-1.6074,-1.6072,-1.5958,0,-1.5912,-1.5866,-1.5924,-1.5866,-1.5853,-1.5934,-1.5909,-1.5929,-1.596,-1.5954,-1.5989,-1.5979,-1.6042,-1.6046,-1.6023,-1.6058,-1.6001,-1.6067,-1.6058,-1.6057,-1.6051,-1.5884,-1.5844,-1.5735,-1.5944,-1.5941,-1.594,0,-1.5758,-1.5768,-1.5709,-1.5755,-1.5751,-1.5727,-1.574,-1.5732,-1.5758,-1.5783,-1.5792,-1.5844,-1.582,-1.5888,-1.5856,-1.59,-1.59,-1.5917,-1.5914,-1.5916,-1.5992,-1.5883,-1.5701,-1.5685,-1.5918,-1.5919,-1.5921,0,-1.5611,-1.5609,-1.5575,-1.5584,-1.5634,-1.5617,-1.5637,-1.5666,-1.5668,-1.5678,-1.5681,-1.5687,-1.5691,-1.5695,-1.5749,-1.5793,-1.5711,-1.5783,-1.5732,-1.5731,-1.5711,-1.5712,-1.5528,-1.5708,-1.5708,-1.5709,-1.5709,0,-1.5466,-1.5427,-1.5511,-1.5489,-1.545,-1.5517,-1.5475,-1.5504,-1.553,-1.5516,-1.5586,-1.5572,-1.5643,-1.5637,-1.5678,-1.5647,-1.5647,-1.5668,-1.568,-1.5663,-1.566,-1.5664,-1.5673,-1.5704,-1.5705,-1.5706,-1.5707,0,-1.5294,-1.5348,-1.5317,-1.537,-1.5382,-1.535,-1.5395,-1.5378,-1.5416,-1.5398,-1.5398,-1.5457,-1.5453,-1.5508,-1.5513,-1.5542,-1.5493,-1.5517,-1.5485,-1.5493,-1.544,-1.5445,-1.5253,-1.5233,-1.5423,-1.5421,-1.542,0,-1.5198,-1.5171,-1.5222,-1.5219,-1.5237,-1.523,-1.5233,-1.5299,-1.5299,-1.5329,-1.5309,-1.5312,-1.5318,-1.5309,-1.5352,-1.5358,-1.5384,-1.5317,-1.5385,-1.537,-1.5386,-1.5388,-1.5387,-1.5302,-1.53,-1.5298,-1.5296,0,-1.5023,-1.5052,-1.5055,-1.5067,-1.507,-1.5082,-1.5099,-1.5092,-1.5165,-1.5161,-1.516,-1.5165,-1.5174,-1.5177,-1.5192,-1.5213,-1.5267,-1.5275,-1.5264,-1.5246,-1.523,-1.5241,-1.5447,-1.5278,-1.528,-1.5282,-1.5282,-1.5283,-1.4888,-1.4869,-1.4903,-1.4905,-1.4925,-1.4941,-1.4929,-1.4967,-1.4967,-1.4981,-1.502,-1.5013,-1.5043,-1.5069,-1.5086,-1.5082,-1.5115,-1.5098,-1.5094,-1.5089,-1.5081,-1.5229,-1.5084,-1.5085,-1.5085,-1.5086,-1.5086,0,-1.4718,-1.4745,-1.4746,-1.477,-1.4771,-1.4824,-1.4847,-1.4845,-1.4838,-1.4862,-1.4868,-1.4868,-1.4872,-1.4917,-1.4927,-1.4915,-1.494,-1.4916,-1.4918,-1.4923,-1.5049,-1.5059,-1.4895,-1.4895,-1.4895,-1.4895,-1.4896,-1.4896,-1.463,-1.4603,-1.4637,-1.4621,-1.4648,-1.4644,-1.4653,-1.4668,-1.4688,-1.4686,-1.4691,-1.4721,-1.4754,-1.4768,-1.4774,-1.4788,-1.4789,-1.4756,-1.4777,-1.4895,-1.4913,-1.4931,-1.494,-1.4755,-1.4755,-1.4652,-1.4651,-1.465]}]]